Location: Sluknov
(51.0170°N, 14.4670°E)
Time: 10:45:08
(UTC+01:00)

ISS - Pass Details

Date: 20 February 2026
Orbit: 416 x 426 km, 51.6° (Epoch: 10 March)

Event Time Altitude Azimuth Distance (km) Brightness Sun altitude
Exits shadow 06:30:53 - 272° (W) 1,663 -1.4 -6.1°
Reaches altitude 10° 06:31:17 10° 272° (W) 1,495 -1.6 -6.1°
Maximum altitude 06:34:39 78° 0° (N) 431 -3.7 -5.5°
Drops below altitude 10° 06:38:00 10° 87° (E) 1,492 0.7 -5.0°
Sets 06:40:05 0° 89° (E) 2,355 2.1 -4.7°
